QPF
0.02 0.02 0.01 0.00 0.00 0.00 0.00 0.00 0.00 0.00 0.00 0.00 0.00 0.00 0.00 0.00 0.00 0.00 0.00 0.00 0.00 0.00 0.00 0.02 0.02 0.02 0.02 0.02 0.02 0.01 0.01 0.01 0.01 0.01 0.01 0.01 0.01 0.01 0.01 0.01 0.01 0.01 0.01 0.01 0.01 0.01 0.01 0.01 0.01
0.02 0.02 0.02 0.01 0.00 0.00 0.00 0.00 0.00 0.00 0.00 0.00 0.00 0.00 0.00 0.00 0.00 0.00 0.00 0.00 0.00 0.00 0.00 0.01 0.02 0.02 0.02 0.02 0.02 0.01 0.01 0.01 0.01 0.01 0.01 0.01 0.01 0.01 0.01 0.01 0.01 0.01 0.01 0.01 0.01 0.01 0.01 0.00 0.00
0.03 0.04 0.02 0.01 0.00 0.00 0.00 0.00 0.00 0.00 0.00 0.00 0.00 0.00 0.00 0.00 0.00 0.00 0.00 0.00 0.00 0.00 0.01 0.01 0.03 0.03 0.03 0.02 0.02 0.01 0.01 0.01 0.01 0.01 0.01 0.01 0.01 0.01 0.01 0.01 0.01 0.01 0.01 0.01 0.00 0.00 0.00 0.00 0.01
0.03 0.05 0.03 0.01 0.00 0.00 0.00 0.00 0.00 0.00 0.00 0.00 0.00 0.00 0.00 0.00 0.00 0.00 0.00 0.00 0.00 0.00 0.01 0.02 0.03 0.03 0.03 0.02 0.02 0.01 0.01 0.01 0.01 0.01 0.01 0.01 0.01 0.01 0.01 0.01 0.01 0.01 0.01 0.00 0.00 0.00 0.00 0.00 0.01
0.04 0.04 0.03 0.01 0.00 0.00 0.00 0.00 0.00 0.00 0.00 0.00 0.00 0.00 0.00 0.00 0.00 0.00 0.00 0.00 0.00 0.00 0.01 0.02 0.03 0.03 0.03 0.03 0.02 0.01 0.01 0.01 0.01 0.01 0.01 0.01 0.01 0.01 0.01 0.01 0.01 0.00 0.00 0.00 0.00 0.00 0.00 0.00 0.00
0.05 0.05 0.03 0.01 0.00 0.00 0.00 0.00 0.00 0.00 0.00 0.00 0.00 0.00 0.00 0.00 0.00 0.00 0.00 0.00 0.00 0.00 0.01 0.02 0.04 0.03 0.03 0.03 0.02 0.01 0.01 0.01 0.01 0.01 0.01 0.01 0.01 0.01 0.01 0.01 0.01 0.00 0.00 0.00 0.00 0.00 0.00 0.00 0.01
0.04 0.05 0.02 0.00 0.00 0.00 0.00 0.00 0.00 0.00 0.00 0.00 0.00 0.00 0.00 0.00 0.00 0.00 0.00 0.00 0.00 0.01 0.01 0.02 0.04 0.04 0.03 0.03 0.02 0.01 0.01 0.01 0.01 0.01 0.01 0.01 0.01 0.01 0.01 0.01 0.01 0.00 0.00 0.00 0.00 0.00 0.00 0.00 0.00
0.05 0.07 0.03 0.01 0.00 0.00 0.00 0.00 0.00 0.00 0.00 0.00 0.00 0.00 0.00 0.00 0.00 0.00 0.00 0.00 0.01 0.01 0.02 0.02 0.03 0.04 0.03 0.03 0.02 0.01 0.01 0.01 0.01 0.01 0.01 0.01 0.01 0.01 0.01 0.01 0.00 0.01 0.00 0.00 0.00 0.00 0.00 0.00 0.00
0.07 0.10 0.05 0.01 0.00 0.00 0.00 0.00 0.00 0.00 0.00 0.00 0.00 0.00 0.00 0.00 0.00 0.00 0.01 0.01 0.02 0.02 0.02 0.03 0.03 0.03 0.03 0.03 0.02 0.02 0.02 0.02 0.01 0.01 0.01 0.00 0.00 0.01 0.00 0.00 0.00 0.00 0.00 0.00 0.00 0.00 0.00 0.00 0.00
0.08 0.08 0.04 0.01 0.00 0.00 0.01 0.00 0.00 0.00 0.00 0.00 0.00 0.00 0.00 0.00 0.01 0.01 0.01 0.01 0.02 0.02 0.02 0.03 0.03 0.03 0.03 0.03 0.03 0.02 0.02 0.01 0.01 0.01 0.01 0.00 0.00 0.00 0.00 0.00 0.00 0.00 0.00 0.00 0.00 0.00 0.00 0.00 0.00
0.08 0.07 0.02 0.01 0.01 0.01 0.01 0.01 0.01 0.01 0.00 0.00 0.00 0.00 0.00 0.00 0.01 0.01 0.01 0.01 0.01 0.01 0.02 0.02 0.03 0.03 0.03 0.02 0.02 0.02 0.02 0.01 0.01 0.00 0.00 0.00 0.00 0.00 0.00 0.00 0.00 0.00 0.00 0.00 0.00 0.00 0.00 0.00 0.00
0.05 0.05 0.03 0.02 0.02 0.02 0.02 0.02 0.02 0.01 0.00 0.00 0.00 0.00 0.00 0.00 0.01 0.01 0.01 0.01 0.01 0.01 0.02 0.02 0.02 0.03 0.03 0.02 0.02 0.02 0.01 0.01 0.01 0.00 0.00 0.00 0.00 0.00 0.00 0.00 0.00 0.00 0.00 0.00 0.00 0.00 0.00 0.00 0.00
0.04 0.03 0.03 0.04 0.03 0.02 0.02 0.02 0.02 0.01 0.00 0.00 0.00 0.00 0.00 0.00 0.01 0.01 0.02 0.03 0.02 0.02 0.02 0.02 0.02 0.03 0.02 0.02 0.01 0.01 0.01 0.01 0.00 0.00 0.00 0.00 0.00 0.00 0.00 0.00 0.00 0.00 0.00 0.00 0.00 0.00 0.00 0.00 0.00
0.04 0.02 0.02 0.03 0.04 0.03 0.03 0.02 0.02 0.01 0.00 0.00 0.00 0.00 0.00 0.00 0.01 0.02 0.03 0.03 0.04 0.03 0.02 0.02 0.02 0.02 0.02 0.02 0.01 0.01 0.01 0.01 0.00 0.00 0.00 0.00 0.00 0.00 0.00 0.00 0.00 0.00 0.00 0.00 0.00 0.00 0.00 0.00 0.00
0.04 0.04 0.03 0.02 0.03 0.03 0.04 0.04 0.01 0.00 0.00 0.00 0.00 0.00 0.00 0.01 0.01 0.01 0.02 0.02 0.02 0.03 0.03 0.03 0.03 0.03 0.02 0.02 0.01 0.01 0.01 0.01 0.00 0.00 0.00 0.00 0.00 0.00 0.00 0.00 0.00 0.00 0.00 0.00 0.00 0.00 0.00 0.00 0.00
0.07 0.08 0.06 0.02 0.02 0.02 0.07 0.06 0.01 0.00 0.00 0.01 0.00 0.00 0.00 0.01 0.01 0.02 0.02 0.02 0.03 0.03 0.04 0.04 0.04 0.04 0.03 0.02 0.01 0.01 0.01 0.01 0.00 0.00 0.00 0.00 0.00 0.00 0.00 0.00 0.00 0.00 0.00 0.00 0.00 0.00 0.00 0.00 0.00
0.07 0.08 0.05 0.02 0.02 0.03 0.07 0.06 0.01 0.00 0.00 0.01 0.01 0.00 0.00 0.01 0.01 0.03 0.04 0.03 0.03 0.04 0.04 0.05 0.05 0.05 0.04 0.04 0.03 0.01 0.01 0.01 0.00 0.00 0.00 0.00 0.00 0.00 0.00 0.00 0.00 0.00 0.00 0.00 0.00 0.00 0.00 0.00 0.00
0.06 0.05 0.03 0.02 0.02 0.05 0.07 0.05 0.01 0.01 0.01 0.01 0.01 0.01 0.01 0.00 0.01 0.02 0.04 0.05 0.04 0.04 0.05 0.06 0.06 0.05 0.05 0.06 0.05 0.03 0.02 0.01 0.01 0.00 0.00 0.00 0.00 0.00 0.00 0.00 0.00 0.00 0.00 0.00 0.00 0.00 0.00 0.00 0.00
0.06 0.07 0.05 0.02 0.02 0.05 0.06 0.03 0.01 0.01 0.01 0.01 0.01 0.02 0.02 0.00 0.00 0.01 0.04 0.06 0.07 0.06 0.05 0.05 0.07 0.07 0.06 0.06 0.05 0.04 0.03 0.01 0.01 0.00 0.00 0.00 0.00 0.00 0.00 0.00 0.00 0.00 0.00 0.00 0.00 0.00 0.00 0.00 0.00
0.06 0.08 0.06 0.03 0.02 0.05 0.04 0.02 0.01 0.01 0.02 0.02 0.01 0.03 0.03 0.01 0.00 0.01 0.02 0.05 0.07 0.06 0.05 0.05 0.05 0.06 0.06 0.05 0.04 0.03 0.03 0.02 0.01 0.01 0.00 0.00 0.00 0.00 0.00 0.00 0.00 0.00 0.00 0.00 0.00 0.00 0.00 0.00 0.00
0.06 0.06 0.05 0.04 0.04 0.05 0.06 0.03 0.01 0.01 0.01 0.02 0.01 0.02 0.03 0.02 0.01 0.01 0.01 0.03 0.05 0.06 0.05 0.04 0.04 0.04 0.05 0.06 0.05 0.04 0.04 0.05 0.03 0.01 0.00 0.00 0.00 0.00 0.00 0.00 0.00 0.00 0.00 0.00 0.00 0.00 0.00 0.00 0.00
0.06 0.04 0.04 0.04 0.07 0.07 0.07 0.07 0.01 0.00 0.00 0.01 0.01 0.01 0.01 0.02 0.01 0.01 0.01 0.02 0.02 0.03 0.04 0.05 0.04 0.04 0.04 0.06 0.05 0.04 0.04 0.03 0.03 0.01 0.00 0.00 0.00 0.00 0.00 0.00 0.00 0.00 0.00 0.00 0.00 0.00 0.00 0.00 0.00
0.04 0.04 0.05 0.06 0.08 0.10 0.08 0.08 0.02 0.00 0.00 0.00 0.00 0.00 0.00 0.01 0.01 0.01 0.01 0.02 0.02 0.02 0.03 0.04 0.06 0.05 0.05 0.05 0.05 0.04 0.04 0.03 0.02 0.02 0.01 0.00 0.00 0.00 0.00 0.00 0.00 0.00 0.00 0.00 0.00 0.00 0.00 0.00 0.00
0.03 0.05 0.06 0.08 0.13 0.13 0.05 0.06 0.02 0.01 0.01 0.01 0.00 0.00 0.00 0.00 0.01 0.01 0.01 0.01 0.02 0.03 0.03 0.03 0.05 0.05 0.04 0.04 0.05 0.04 0.04 0.04 0.02 0.02 0.02 0.01 0.00 0.00 0.00 0.00 0.00 0.00 0.00 0.00 0.00 0.00 0.00 0.00 0.00
0.04 0.10 0.11 0.11 0.12 0.06 0.01 0.02 0.02 0.01 0.01 0.01 0.00 0.00 0.00 0.00 0.00 0.01 0.00 0.01 0.01 0.02 0.03 0.03 0.04 0.04 0.04 0.04 0.04 0.05 0.05 0.04 0.03 0.02 0.01 0.01 0.00 0.00 0.00 0.00 0.00 0.00 0.00 0.00 0.00 0.00 0.00 0.00 0.00
0.05 0.09 0.11 0.10 0.07 0.02 0.01 0.02 0.02 0.01 0.01 0.01 0.01 0.00 0.00 0.00 0.00 0.01 0.00 0.00 0.01 0.01 0.02 0.02 0.03 0.04 0.04 0.03 0.04 0.05 0.06 0.06 0.04 0.03 0.02 0.01 0.00 0.00 0.00 0.00 0.00 0.00 0.00 0.00 0.00 0.00 0.00 0.00 0.00
0.06 0.06 0.06 0.11 0.08 0.05 0.03 0.03 0.02 0.01 0.01 0.01 0.01 0.01 0.01 0.00 0.00 0.00 0.00 0.00 0.00 0.01 0.02 0.01 0.02 0.03 0.04 0.04 0.03 0.04 0.06 0.06 0.06 0.04 0.02 0.01 0.00 0.00 0.00 0.00 0.00 0.00 0.00 0.00 0.00 0.00 0.00 0.00 0.00
0.06 0.08 0.07 0.09 0.08 0.06 0.04 0.03 0.03 0.02 0.02 0.01 0.01 0.02 0.01 0.01 0.01 0.00 0.01 0.00 0.00 0.00 0.01 0.01 0.01 0.02 0.03 0.03 0.03 0.03 0.04 0.05 0.06 0.06 0.03 0.02 0.01 0.00 0.00 0.00 0.00 0.00 0.00 0.00 0.00 0.00 0.00 0.00 0.00
0.05 0.07 0.09 0.08 0.07 0.08 0.07 0.07 0.08 0.05 0.03 0.02 0.01 0.01 0.02 0.01 0.01 0.01 0.01 0.01 0.00 0.00 0.01 0.02 0.02 0.02 0.03 0.02 0.03 0.04 0.03 0.04 0.06 0.06 0.05 0.03 0.02 0.01 0.00 0.00 0.00 0.00 0.00 0.00 0.00 0.00 0.00 0.00 0.00
0.04 0.06 0.08 0.10 0.06 0.05 0.06 0.08 0.08 0.05 0.03 0.02 0.02 0.01 0.01 0.01 0.01 0.01 0.01 0.01 0.00 0.00 0.00 0.01 0.03 0.03 0.02 0.02 0.02 0.02 0.03 0.04 0.05 0.05 0.05 0.04 0.03 0.02 0.01 0.00 0.00 0.00 0.00 0.00 0.00 0.00 0.00 0.00 0.00
MSLP
1012.54 1012.76 1013.02 1013.26 1013.40 1013.41 1013.26 1012.97 1012.55 1012.05 1011.52 1010.98 1010.44 1009.88 1009.29 1008.64 1007.93 1007.18 1006.46 1005.83 1005.36 1005.13 1005.15 1005.42 1005.91 1006.53 1007.20 1007.85 1008.41 1008.89 1009.29 1009.66 1010.05 1010.50 1011.04 1011.65 1012.29 1012.94 1013.54 1014.05 1014.46 1014.78 1015.04 1015.27 1015.49 1015.72 1015.97 1016.23 1016.48
1012.61 1012.72 1012.83 1012.90 1012.87 1012.71 1012.42 1012.00 1011.49 1010.93 1010.34 1009.75 1009.17 1008.59 1007.99 1007.36 1006.71 1006.06 1005.47 1004.98 1004.67 1004.57 1004.72 1005.10 1005.67 1006.35 1007.07 1007.77 1008.40 1008.95 1009.42 1009.87 1010.32 1010.81 1011.35 1011.95 1012.56 1013.17 1013.73 1014.21 1014.61 1014.94 1015.21 1015.46 1015.71 1015.97 1016.24 1016.51 1016.76
1012.62 1012.57 1012.50 1012.38 1012.17 1011.87 1011.47 1011.00 1010.46 1009.89 1009.31 1008.72 1008.14 1007.55 1006.94 1006.32 1005.71 1005.13 1004.62 1004.26 1004.07 1004.11 1004.37 1004.85 1005.49 1006.23 1007.00 1007.75 1008.44 1009.06 1009.60 1010.11 1010.61 1011.12 1011.67 1012.23 1012.80 1013.34 1013.85 1014.29 1014.67 1015.00 1015.30 1015.59 1015.88 1016.18 1016.48 1016.78 1017.06
1012.59 1012.38 1012.11 1011.79 1011.42 1011.00 1010.55 1010.07 1009.57 1009.06 1008.54 1008.01 1007.45 1006.86 1006.26 1005.64 1005.04 1004.50 1004.06 1003.78 1003.70 1003.84 1004.19 1004.74 1005.43 1006.20 1007.00 1007.78 1008.51 1009.17 1009.77 1010.33 1010.87 1011.40 1011.94 1012.47 1012.99 1013.48 1013.93 1014.34 1014.70 1015.04 1015.37 1015.70 1016.04 1016.38 1016.73 1017.06 1017.37
1012.56 1012.17 1011.72 1011.23 1010.72 1010.22 1009.74 1009.30 1008.88 1008.48 1008.06 1007.61 1007.11 1006.55 1005.95 1005.33 1004.74 1004.22 1003.83 1003.62 1003.61 1003.82 1004.22 1004.80 1005.51 1006.28 1007.07 1007.84 1008.57 1009.25 1009.88 1010.48 1011.05 1011.60 1012.14 1012.66 1013.15 1013.60 1014.02 1014.41 1014.77 1015.12 1015.48 1015.85 1016.24 1016.63 1017.01 1017.38 1017.71
1012.54 1012.01 1011.40 1010.75 1010.13 1009.57 1009.09 1008.71 1008.39 1008.11 1007.81 1007.47 1007.04 1006.53 1005.94 1005.33 1004.75 1004.25 1003.90 1003.73 1003.78 1004.02 1004.45 1005.03 1005.71 1006.43 1007.18 1007.90 1008.60 1009.27 1009.91 1010.53 1011.14 1011.73 1012.29 1012.82 1013.31 1013.76 1014.17 1014.55 1014.92 1015.30 1015.69 1016.09 1016.51 1016.93 1017.34 1017.73 1018.07
1012.57 1011.92 1011.18 1010.41 1009.69 1009.08 1008.60 1008.26 1008.03 1007.86 1007.67 1007.42 1007.07 1006.61 1006.07 1005.48 1004.92 1004.46 1004.14 1004.02 1004.10 1004.37 1004.80 1005.34 1005.97 1006.62 1007.28 1007.94 1008.58 1009.22 1009.86 1010.50 1011.14 1011.78 1012.38 1012.96 1013.48 1013.96 1014.39 1014.79 1015.19 1015.58 1016.00 1016.42 1016.86 1017.30 1017.72 1018.10 1018.43
1012.64 1011.92 1011.08 1010.21 1009.40 1008.72 1008.22 1007.90 1007.72 1007.61 1007.50 1007.33 1007.04 1006.64 1006.14 1005.59 1005.08 1004.66 1004.40 1004.32 1004.44 1004.72 1005.14 1005.65 1006.20 1006.77 1007.35 1007.93 1008.51 1009.12 1009.75 1010.42 1011.10 1011.79 1012.46 1013.10 1013.68 1014.20 1014.67 1015.11 1015.53 1015.95 1016.38 1016.82 1017.26 1017.69 1018.10 1018.46 1018.78
1012.77 1012.00 1011.09 1010.13 1009.23 1008.48 1007.92 1007.57 1007.37 1007.28 1007.20 1007.06 1006.82 1006.46 1006.01 1005.52 1005.07 1004.72 1004.52 1004.50 1004.65 1004.95 1005.36 1005.84 1006.34 1006.84 1007.35 1007.86 1008.40 1008.99 1009.63 1010.32 1011.06 1011.81 1012.55 1013.25 1013.89 1014.47 1014.99 1015.46 1015.91 1016.34 1016.78 1017.22 1017.66 1018.08 1018.46 1018.81 1019.09
1012.96 1012.16 1011.18 1010.15 1009.16 1008.31 1007.66 1007.22 1006.96 1006.82 1006.72 1006.58 1006.35 1006.03 1005.63 1005.21 1004.82 1004.54 1004.41 1004.45 1004.64 1004.97 1005.38 1005.84 1006.32 1006.79 1007.26 1007.75 1008.28 1008.87 1009.53 1010.26 1011.04 1011.84 1012.64 1013.40 1014.10 1014.72 1015.28 1015.79 1016.26 1016.70 1017.14 1017.58 1018.00 1018.41 1018.78 1019.10 1019.37
1013.19 1012.37 1011.35 1010.24 1009.15 1008.19 1007.42 1006.87 1006.50 1006.28 1006.11 1005.93 1005.69 1005.39 1005.03 1004.67 1004.35 1004.14 1004.07 1004.16 1004.40 1004.75 1005.17 1005.64 1006.12 1006.60 1007.08 1007.59 1008.14 1008.77 1009.46 1010.23 1011.06 1011.91 1012.74 1013.54 1014.27 1014.93 1015.51 1016.04 1016.52 1016.98 1017.42 1017.85 1018.27 1018.67 1019.04 1019.35 1019.61
1013.44 1012.60 1011.54 1010.37 1009.20 1008.13 1007.23 1006.55 1006.05 1005.71 1005.45 1005.21 1004.95 1004.66 1004.33 1004.02 1003.76 1003.60 1003.58 1003.70 1003.95 1004.32 1004.76 1005.25 1005.76 1006.28 1006.81 1007.38 1008.00 1008.69 1009.44 1010.25 1011.11 1011.98 1012.83 1013.64 1014.39 1015.06 1015.66 1016.20 1016.69 1017.16 1017.60 1018.04 1018.46 1018.86 1019.23 1019.55 1019.82
1013.68 1012.83 1011.74 1010.53 1009.29 1008.13 1007.12 1006.31 1005.68 1005.22 1004.86 1004.56 1004.27 1003.97 1003.66 1003.39 1003.17 1003.04 1003.03 1003.16 1003.41 1003.77 1004.21 1004.72 1005.27 1005.86 1006.48 1007.14 1007.86 1008.62 1009.44 1010.29 1011.17 1012.05 1012.89 1013.69 1014.43 1015.10 1015.71 1016.26 1016.76 1017.24 1017.70 1018.15 1018.59 1019.00 1019.38 1019.72 1020.00
1013.88 1013.02 1011.93 1010.70 1009.42 1008.21 1007.12 1006.20 1005.46 1004.89 1004.44 1004.07 1003.74 1003.43 1003.15 1002.89 1002.69 1002.58 1002.56 1002.65 1002.87 1003.20 1003.62 1004.14 1004.73 1005.39 1006.11 1006.88 1007.69 1008.55 1009.43 1010.32 1011.21 1012.07 1012.90 1013.67 1014.40 1015.06 1015.67 1016.24 1016.77 1017.28 1017.76 1018.23 1018.68 1019.11 1019.51 1019.87 1020.17
1014.02 1013.17 1012.10 1010.88 1009.61 1008.37 1007.23 1006.23 1005.40 1004.73 1004.19 1003.76 1003.40 1003.09 1002.81 1002.58 1002.39 1002.26 1002.21 1002.26 1002.42 1002.69 1003.07 1003.58 1004.20 1004.92 1005.73 1006.59 1007.51 1008.45 1009.38 1010.30 1011.19 1012.03 1012.83 1013.58 1014.29 1014.96 1015.59 1016.19 1016.76 1017.30 1017.82 1018.30 1018.77 1019.21 1019.62 1019.99 1020.32
1014.11 1013.28 1012.25 1011.08 1009.85 1008.62 1007.45 1006.40 1005.48 1004.71 1004.09 1003.59 1003.19 1002.86 1002.60 1002.38 1002.20 1002.07 1001.99 1001.98 1002.07 1002.28 1002.61 1003.10 1003.72 1004.49 1005.36 1006.31 1007.31 1008.31 1009.29 1010.22 1011.10 1011.92 1012.69 1013.42 1014.13 1014.81 1015.48 1016.12 1016.74 1017.33 1017.88 1018.39 1018.86 1019.31 1019.71 1020.09 1020.42
1014.14 1013.36 1012.41 1011.33 1010.16 1008.96 1007.77 1006.66 1005.64 1004.77 1004.03 1003.45 1002.99 1002.65 1002.39 1002.20 1002.04 1001.92 1001.82 1001.78 1001.82 1001.96 1002.25 1002.69 1003.32 1004.11 1005.02 1006.03 1007.09 1008.13 1009.14 1010.07 1010.93 1011.73 1012.47 1013.19 1013.90 1014.62 1015.33 1016.03 1016.71 1017.35 1017.93 1018.46 1018.94 1019.37 1019.77 1020.13 1020.46
1014.13 1013.45 1012.61 1011.63 1010.54 1009.37 1008.17 1006.97 1005.83 1004.81 1003.94 1003.23 1002.69 1002.31 1002.06 1001.89 1001.78 1001.69 1001.61 1001.57 1001.58 1001.69 1001.94 1002.37 1002.98 1003.78 1004.73 1005.77 1006.85 1007.92 1008.93 1009.86 1010.69 1011.46 1012.19 1012.90 1013.62 1014.37 1015.14 1015.90 1016.64 1017.33 1017.95 1018.49 1018.96 1019.37 1019.74 1020.09 1020.41
1014.13 1013.56 1012.86 1012.01 1011.00 1009.86 1008.60 1007.30 1006.00 1004.79 1003.72 1002.85 1002.20 1001.76 1001.49 1001.36 1001.30 1001.28 1001.26 1001.26 1001.30 1001.41 1001.66 1002.07 1002.69 1003.49 1004.45 1005.51 1006.61 1007.68 1008.68 1009.59 1010.40 1011.13 1011.84 1012.54 1013.28 1014.06 1014.88 1015.70 1016.49 1017.22 1017.87 1018.42 1018.88 1019.27 1019.62 1019.94 1020.26
1014.14 1013.71 1013.16 1012.44 1011.52 1010.39 1009.07 1007.62 1006.12 1004.68 1003.38 1002.31 1001.50 1000.97 1000.68 1000.57 1000.58 1000.65 1000.72 1000.80 1000.89 1001.05 1001.32 1001.76 1002.38 1003.20 1004.17 1005.24 1006.34 1007.41 1008.40 1009.27 1010.05 1010.76 1011.43 1012.13 1012.87 1013.67 1014.52 1015.38 1016.22 1016.99 1017.66 1018.22 1018.67 1019.04 1019.37 1019.69 1020.01
1014.18 1013.90 1013.51 1012.92 1012.08 1010.95 1009.55 1007.95 1006.23 1004.53 1002.97 1001.67 1000.68 1000.03 999.69 999.60 999.67 999.83 1000.01 1000.18 1000.36 1000.58 1000.90 1001.37 1002.02 1002.85 1003.83 1004.91 1006.02 1007.09 1008.06 1008.92 1009.66 1010.34 1010.99 1011.66 1012.39 1013.19 1014.06 1014.94 1015.80 1016.60 1017.28 1017.85 1018.31 1018.68 1019.01 1019.33 1019.67
1014.22 1014.09 1013.85 1013.39 1012.63 1011.51 1010.04 1008.28 1006.35 1004.41 1002.60 1001.06 999.89 999.11 998.70 998.60 998.71 998.94 999.20 999.47 999.73 1000.01 1000.38 1000.88 1001.55 1002.41 1003.40 1004.50 1005.61 1006.68 1007.65 1008.50 1009.23 1009.88 1010.50 1011.15 1011.85 1012.64 1013.50 1014.38 1015.25 1016.06 1016.76 1017.34 1017.82 1018.21 1018.56 1018.90 1019.28
1014.25 1014.24 1014.13 1013.79 1013.11 1012.01 1010.50 1008.63 1006.54 1004.40 1002.39 1000.66 999.31 998.40 997.91 997.78 997.89 998.14 998.45 998.76 999.06 999.38 999.77 1000.28 1000.97 1001.83 1002.84 1003.95 1005.08 1006.17 1007.15 1008.01 1008.74 1009.38 1009.98 1010.60 1011.28 1012.04 1012.87 1013.74 1014.60 1015.41 1016.13 1016.74 1017.24 1017.67 1018.05 1018.44 1018.85
1014.24 1014.30 1014.30 1014.07 1013.46 1012.42 1010.91 1009.01 1006.84 1004.59 1002.44 1000.57 999.10 998.09 997.51 997.31 997.38 997.60 997.89 998.17 998.46 998.75 999.12 999.61 1000.27 1001.12 1002.13 1003.25 1004.40 1005.52 1006.54 1007.42 1008.18 1008.83 1009.43 1010.03 1010.69 1011.41 1012.21 1013.06 1013.91 1014.72 1015.45 1016.09 1016.63 1017.10 1017.52 1017.95 1018.41
1014.16 1014.26 1014.33 1014.18 1013.66 1012.70 1011.26 1009.40 1007.25 1004.98 1002.81 1000.89 999.36 998.27 997.61 997.32 997.30 997.43 997.62 997.82 998.00 998.21 998.49 998.90 999.50 1000.31 1001.29 1002.41 1003.58 1004.74 1005.80 1006.74 1007.54 1008.23 1008.85 1009.46 1010.10 1010.80 1011.57 1012.40 1013.23 1014.03 1014.78 1015.44 1016.01 1016.52 1016.99 1017.46 1017.94
1014.03 1014.12 1014.21 1014.12 1013.70 1012.84 1011.52 1009.78 1007.74 1005.58 1003.48 1001.61 1000.08 998.96 998.24 997.85 997.71 997.70 997.73 997.76 997.78 997.83 997.96 998.24 998.74 999.46 1000.39 1001.48 1002.66 1003.84 1004.96 1005.96 1006.82 1007.57 1008.24 1008.87 1009.52 1010.22 1010.97 1011.77 1012.59 1013.39 1014.14 1014.82 1015.42 1015.96 1016.46 1016.95 1017.44
1013.88 1013.92 1014.00 1013.94 1013.60 1012.86 1011.70 1010.14 1008.30 1006.33 1004.39 1002.65 1001.20 1000.09 999.33 998.84 998.56 998.37 998.20 998.02 997.83 997.67 997.61 997.72 998.06 998.66 999.50 1000.53 1001.69 1002.89 1004.05 1005.11 1006.05 1006.87 1007.60 1008.28 1008.96 1009.67 1010.42 1011.20 1012.01 1012.79 1013.54 1014.23 1014.85 1015.41 1015.92 1016.40 1016.88
1013.79 1013.75 1013.78 1013.72 1013.43 1012.81 1011.82 1010.48 1008.89 1007.16 1005.45 1003.89 1002.56 1001.51 1000.73 1000.17 999.74 999.36 998.98 998.58 998.15 997.77 997.49 997.40 997.57 998.01 998.73 999.67 1000.78 1001.96 1003.13 1004.24 1005.24 1006.14 1006.94 1007.68 1008.40 1009.14 1009.89 1010.67 1011.46 1012.24 1012.98 1013.66 1014.28 1014.84 1015.34 1015.80 1016.25
1013.82 1013.68 1013.64 1013.56 1013.29 1012.77 1011.94 1010.81 1009.47 1008.01 1006.55 1005.19 1004.02 1003.05 1002.27 1001.64 1001.09 1000.55 999.98 999.36 998.73 998.13 997.65 997.36 997.33 997.61 998.17 998.99 1000.00 1001.12 1002.27 1003.39 1004.44 1005.39 1006.25 1007.06 1007.83 1008.60 1009.37 1010.15 1010.94 1011.70 1012.42 1013.09 1013.69 1014.23 1014.70 1015.14 1015.54
1014.03 1013.80 1013.68 1013.54 1013.27 1012.80 1012.09 1011.15 1010.03 1008.81 1007.59 1006.43 1005.40 1004.52 1003.77 1003.10 1002.46 1001.79 1001.07 1000.29 999.48 998.71 998.06 997.59 997.39 997.48 997.88 998.54 999.42 1000.43 1001.52 1002.61 1003.66 1004.64 1005.56 1006.42 1007.24 1008.04 1008.83 1009.62 1010.39 1011.14 1011.84 1012.48 1013.06 1013.57 1014.02 1014.42 1014.78
Thickness
5680 5679 5677 5669 5657 5651 5663 5682 5694 5703 5709 5720 5725 5725 5726 5729 5731 5740 5769 5779 5781 5780 5779 5777 5775 5772 5769 5767 5766 5764 5762 5761 5759 5758 5756 5754 5752 5750 5749 5747 5745 5744 5742 5740 5738 5736 5734 5731 5729
5670 5669 5661 5652 5643 5646 5667 5686 5694 5707 5716 5720 5722 5724 5725 5731 5747 5757 5765 5772 5775 5775 5774 5773 5771 5769 5766 5763 5761 5760 5758 5757 5755 5754 5752 5750 5748 5746 5745 5743 5742 5740 5738 5736 5734 5732 5729 5727 5725
5659 5657 5646 5639 5641 5661 5677 5688 5699 5708 5711 5712 5713 5718 5723 5733 5747 5755 5763 5768 5770 5769 5769 5768 5767 5764 5762 5759 5757 5755 5754 5752 5751 5749 5748 5746 5744 5742 5741 5739 5738 5736 5734 5731 5729 5727 5725 5723 5721
5644 5638 5632 5632 5650 5672 5681 5687 5693 5696 5701 5704 5705 5708 5721 5739 5747 5754 5759 5762 5763 5763 5764 5763 5762 5760 5757 5755 5753 5751 5749 5748 5746 5745 5743 5741 5740 5738 5736 5735 5733 5731 5729 5727 5725 5723 5721 5719 5717
5627 5622 5620 5629 5653 5669 5674 5681 5685 5687 5692 5697 5698 5701 5714 5735 5744 5748 5751 5754 5756 5757 5758 5757 5756 5755 5752 5750 5748 5746 5744 5743 5742 5740 5738 5737 5735 5734 5732 5730 5728 5726 5725 5723 5721 5719 5717 5715 5713
5609 5610 5611 5629 5651 5661 5665 5671 5673 5676 5681 5687 5690 5695 5711 5727 5733 5738 5743 5745 5748 5750 5751 5751 5750 5749 5747 5745 5743 5741 5740 5738 5737 5735 5734 5732 5731 5729 5727 5725 5724 5722 5720 5719 5717 5715 5713 5711 5709
5595 5599 5609 5623 5636 5646 5656 5660 5661 5666 5671 5678 5685 5687 5704 5717 5723 5729 5732 5735 5737 5741 5743 5744 5744 5743 5741 5740 5738 5736 5735 5733 5732 5730 5729 5728 5726 5724 5723 5721 5719 5717 5716 5714 5712 5710 5708 5707 5705
5584 5585 5598 5609 5619 5634 5646 5650 5658 5658 5666 5674 5677 5678 5692 5707 5713 5718 5721 5723 5727 5730 5734 5736 5737 5736 5735 5734 5732 5731 5730 5728 5727 5725 5724 5722 5721 5719 5718 5716 5714 5713 5711 5709 5707 5706 5704 5702 5700
5567 5566 5587 5602 5608 5619 5632 5636 5646 5655 5658 5664 5671 5680 5692 5698 5702 5704 5707 5711 5716 5721 5725 5728 5730 5730 5729 5728 5727 5725 5724 5723 5721 5720 5718 5717 5715 5714 5712 5711 5709 5708 5706 5704 5703 5701 5699 5697 5695
5550 5557 5582 5594 5596 5602 5613 5620 5628 5635 5642 5652 5660 5670 5680 5685 5691 5695 5700 5704 5709 5715 5719 5722 5724 5724 5724 5723 5721 5720 5718 5717 5716 5714 5713 5711 5710 5708 5706 5705 5704 5703 5701 5700 5698 5696 5694 5692 5690
5539 5548 5565 5573 5580 5586 5593 5602 5613 5618 5628 5642 5651 5659 5665 5673 5681 5687 5694 5702 5708 5711 5713 5716 5717 5718 5718 5717 5715 5714 5713 5711 5710 5709 5707 5705 5704 5702 5700 5699 5698 5697 5696 5694 5692 5690 5688 5686 5685
5523 5536 5543 5552 5559 5566 5574 5584 5594 5606 5624 5636 5643 5649 5655 5662 5672 5681 5687 5694 5699 5702 5706 5709 5711 5711 5712 5711 5710 5709 5708 5706 5705 5703 5702 5700 5698 5696 5695 5694 5692 5691 5690 5688 5686 5684 5682 5681 5680
5506 5518 5528 5533 5539 5547 5557 5567 5578 5597 5613 5620 5630 5637 5645 5655 5665 5674 5681 5686 5691 5695 5699 5702 5704 5705 5706 5705 5704 5703 5702 5701 5699 5697 5696 5695 5694 5691 5689 5688 5687 5685 5684 5683 5680 5679 5677 5676 5674
5495 5500 5508 5517 5524 5532 5541 5554 5564 5591 5600 5606 5616 5625 5635 5646 5657 5664 5671 5677 5683 5689 5693 5696 5697 5699 5699 5700 5699 5698 5696 5695 5693 5692 5691 5690 5689 5687 5685 5682 5681 5680 5679 5677 5675 5674 5672 5671 5669
5480 5481 5492 5506 5514 5522 5527 5539 5561 5584 5585 5593 5604 5615 5625 5637 5648 5657 5667 5673 5679 5684 5687 5690 5691 5692 5693 5693 5693 5692 5691 5689 5688 5687 5686 5685 5684 5682 5680 5678 5676 5675 5674 5672 5670 5668 5666 5665 5664
5464 5464 5473 5498 5505 5514 5510 5528 5560 5567 5571 5582 5594 5604 5614 5628 5640 5651 5660 5667 5673 5677 5680 5683 5685 5685 5686 5687 5686 5686 5685 5684 5682 5681 5680 5680 5679 5677 5676 5674 5672 5670 5669 5667 5665 5663 5660 5659 5657
5447 5449 5461 5482 5496 5501 5502 5518 5544 5553 5560 5573 5585 5595 5605 5617 5630 5643 5653 5660 5666 5670 5674 5676 5679 5680 5680 5680 5679 5679 5679 5678 5677 5676 5675 5675 5674 5673 5672 5670 5668 5666 5664 5662 5660 5657 5656 5653 5651
5439 5443 5453 5465 5482 5487 5492 5506 5526 5540 5549 5561 5572 5584 5596 5609 5625 5637 5646 5654 5660 5664 5667 5670 5672 5673 5674 5673 5672 5672 5672 5672 5672 5672 5671 5670 5669 5668 5667 5665 5663 5661 5659 5656 5655 5652 5651 5648 5647
5435 5437 5443 5459 5472 5473 5483 5497 5514 5529 5538 5551 5562 5574 5587 5604 5620 5628 5638 5647 5652 5657 5660 5664 5666 5668 5668 5669 5669 5668 5668 5668 5668 5668 5667 5667 5666 5664 5663 5661 5659 5657 5655 5653 5651 5648 5645 5642 5640
5427 5427 5435 5451 5464 5468 5475 5490 5508 5521 5534 5546 5557 5568 5581 5595 5609 5620 5630 5639 5646 5652 5656 5660 5662 5665 5666 5668 5668 5667 5665 5664 5664 5663 5662 5663 5662 5661 5660 5658 5656 5654 5651 5649 5646 5644 5641 5638 5636
5425 5425 5430 5438 5451 5461 5464 5478 5501 5520 5532 5543 5553 5564 5575 5587 5601 5613 5622 5632 5640 5647 5653 5658 5660 5662 5664 5664 5662 5659 5657 5656 5657 5659 5660 5659 5659 5658 5657 5655 5654 5651 5649 5646 5644 5642 5639 5635 5631
5421 5434 5436 5438 5437 5443 5456 5460 5492 5512 5526 5537 5547 5557 5569 5582 5594 5607 5617 5626 5635 5644 5650 5654 5657 5659 5660 5660 5659 5659 5660 5661 5663 5662 5659 5657 5656 5655 5654 5652 5651 5649 5647 5644 5641 5639 5637 5634 5628
5419 5429 5430 5433 5431 5433 5447 5447 5480 5502 5516 5532 5545 5554 5565 5577 5588 5600 5612 5622 5632 5639 5645 5650 5653 5655 5657 5657 5658 5658 5659 5660 5658 5656 5655 5653 5652 5652 5651 5650 5648 5646 5644 5642 5639 5636 5634 5632 5629
5418 5421 5425 5427 5426 5426 5446 5445 5466 5491 5512 5528 5542 5551 5561 5572 5583 5595 5606 5615 5623 5631 5638 5643 5647 5651 5654 5655 5656 5657 5657 5657 5655 5654 5653 5651 5650 5649 5648 5647 5646 5644 5642 5640 5638 5635 5632 5630 5627
5411 5408 5407 5408 5410 5422 5449 5451 5468 5492 5507 5519 5531 5543 5553 5564 5574 5585 5596 5606 5615 5623 5631 5637 5642 5646 5650 5652 5654 5656 5657 5656 5656 5655 5653 5651 5649 5648 5647 5646 5644 5643 5641 5638 5635 5632 5630 5627 5625
5401 5402 5400 5406 5417 5431 5448 5455 5469 5487 5500 5510 5520 5529 5540 5552 5564 5575 5587 5599 5609 5618 5626 5632 5638 5643 5647 5649 5652 5654 5654 5654 5654 5654 5654 5652 5652 5650 5647 5643 5642 5640 5638 5636 5633 5631 5628 5625 5622
5395 5400 5405 5406 5410 5421 5442 5453 5468 5482 5489 5498 5505 5515 5525 5538 5551 5564 5576 5588 5600 5611 5621 5628 5634 5639 5644 5648 5650 5651 5651 5652 5653 5653 5652 5652 5650 5647 5644 5642 5639 5637 5635 5633 5631 5629 5626 5623 5620
5391 5392 5395 5398 5402 5418 5435 5446 5455 5465 5473 5484 5492 5500 5512 5525 5537 5550 5564 5577 5591 5604 5615 5624 5630 5635 5641 5645 5647 5649 5650 5651 5651 5649 5649 5650 5648 5645 5642 5640 5638 5635 5633 5631 5629 5627 5624 5621 5619
5380 5384 5386 5389 5399 5409 5428 5441 5449 5454 5463 5471 5480 5490 5501 5512 5523 5536 5551 5566 5581 5594 5605 5615 5624 5630 5635 5640 5643 5645 5647 5648 5647 5646 5647 5647 5645 5643 5640 5638 5636 5633 5631 5629 5627 5625 5622 5619 5617
5373 5372 5373 5375 5382 5392 5405 5424 5442 5447 5453 5460 5468 5479 5491 5501 5513 5526 5539 5553 5567 5580 5594 5606 5615 5624 5632 5637 5640 5642 5643 5643 5643 5643 5644 5643 5641 5640 5638 5636 5633 5632 5630 5627 5625 5623 5620 5618 5615